When you browse on this site, cookies collect data to enhance your experience and personalize the content and advertising you see.
Visit our Privacy Policy to learn more. By continuing to use the site, you agree to this use of cookies and data.
  • In Austria
  • List of Countries
  • For 7 days
  • Water Temperature
  • Satellite Maps
  • Weather Map
  • News
  • Weather Widgets
  • user-avatar
    Login

    Hourly Weather Adelaide

    Today, 20 March, Wednesday

    Time Temperature Precipitation Wind Pressure Humidity
    00:00 +22°C° 0 mm 1 mps 756 mmHg 62%
    01:00 +22°C° 0 mm 1 mps 756 mmHg 63%
    02:00 +22°C° 0 mm 1 mps 756 mmHg 64%
    03:00 +21°C° 0 mm 1 mps 756 mmHg 66%
    04:00 +19°C° 0 mm 0 mps 756 mmHg 66%
    05:00 +19°C° 0 mm 0 mps 757 mmHg 67%
    06:00 +19°C° 0 mm 0 mps 757 mmHg 67%
    07:00 +21°C° 0 mm 0 mps 757 mmHg 60%
    08:00 +26°C° 0 mm 1 mps 757 mmHg 52%
    09:00 +26°C° 0 mm 0 mps 757 mmHg 48%
    10:00 +29°C° 0 mm 1 mps 757 mmHg 44%
    11:00 +31°C° 0 mm 2 mps 757 mmHg 40%
    12:00 +32°C° 0 mm 2 mps 757 mmHg 36%
    13:00 +33°C° 0 mm 3 mps 756 mmHg 37%
    14:00 +31°C° 0 mm 3 mps 756 mmHg 38%
    15:00 +30°C° 0 mm 3 mps 756 mmHg 44%
    16:00 +28°C° 0 mm 3 mps 756 mmHg 50%
    17:00 +27°C° 0 mm 3 mps 756 mmHg 55%
    18:00 +26°C° 0 mm 3 mps 756 mmHg 61%
    19:00 +25°C° 0 mm 3 mps 756 mmHg 66%
    20:00 +24°C° 0 mm 3 mps 757 mmHg 70%
    21:00 +22°C° 0 mm 4 mps 757 mmHg 75%
    22:00 +21°C° 0 mm 4 mps 757 mmHg 76%
    23:00 +21°C° 0 mm 3 mps 757 mmHg 77%

    Tomorrow, 21 March, Thursday

    Time Temperature Precipitation Wind Pressure Humidity
    00:00 +21°C° 0 mm 3 mps 757 mmHg 78%
    01:00 +21°C° 0 mm 3 mps 757 mmHg 78%
    02:00 +21°C° 0 mm 3 mps 757 mmHg 78%
    03:00 +20°C° 0 mm 3 mps 757 mmHg 78%
    04:00 +20°C° 0 mm 3 mps 757 mmHg 78%
    05:00 +20°C° 0 mm 3 mps 757 mmHg 79%
    06:00 +19°C° 0 mm 4 mps 758 mmHg 80%
    07:00 +21°C° 0 mm 4 mps 758 mmHg 73%
    08:00 +23°C° 0 mm 4 mps 758 mmHg 66%
    09:00 +25°C° 0 mm 4 mps 758 mmHg 59%
    10:00 +27°C° 0 mm 4 mps 758 mmHg 54%
    11:00 +28°C° 0 mm 4 mps 758 mmHg 49%
    12:00 +30°C° 0 mm 4 mps 758 mmHg 44%
    13:00 +30°C° 0 mm 4 mps 757 mmHg 45%
    14:00 +30°C° 0 mm 5 mps 756 mmHg 45%
    15:00 +29°C° 0 mm 5 mps 756 mmHg 46%
    16:00 +27°C° 0 mm 5 mps 756 mmHg 55%
    17:00 +25°C° 0 mm 5 mps 756 mmHg 63%
    18:00 +22°C° 0 mm 6 mps 756 mmHg 71%
    19:00 +22°C° 0 mm 6 mps 756 mmHg 74%
    20:00 +21°C° 0 mm 6 mps 757 mmHg 78%
    21:00 +21°C° 0 mm 6 mps 757 mmHg 81%
    22:00 +21°C° 0 mm 5 mps 757 mmHg 82%
    23:00 +21°C° 0 mm 5 mps 757 mmHg 83%

    Day after tomorrow, 22 March, Friday

    Time Temperature Precipitation Wind Pressure Humidity
    00:00 +21°C° 0 mm 4 mps 757 mmHg 84%
    01:00 +21°C° 0 mm 4 mps 757 mmHg 83%
    02:00 +21°C° 0 mm 3 mps 756 mmHg 82%
    03:00 +21°C° 0 mm 3 mps 756 mmHg 82%
    04:00 +21°C° 0 mm 3 mps 756 mmHg 81%
    05:00 +21°C° 0 mm 3 mps 756 mmHg 81%
    06:00 +21°C° 0 mm 4 mps 756 mmHg 80%
    07:00 +22°C° 0 mm 4 mps 756 mmHg 72%
    08:00 +25°C° 0 mm 3 mps 756 mmHg 64%
    09:00 +27°C° 0 mm 3 mps 756 mmHg 56%
    10:00 +29°C° 0 mm 3 mps 755 mmHg 49%
    11:00 +31°C° 0 mm 2 mps 755 mmHg 42%
    12:00 +34°C° 0 mm 2 mps 754 mmHg 36%
    13:00 +34°C° 0 mm 2 mps 753 mmHg 34%
    14:00 +35°C° 0 mm 2 mps 753 mmHg 33%
    15:00 +35°C° 0 mm 2 mps 752 mmHg 32%
    16:00 +33°C° 0 mm 3 mps 752 mmHg 38%
    17:00 +30°C° 0 mm 3 mps 752 mmHg 45%
    18:00 +28°C° 0 mm 3 mps 752 mmHg 51%
    19:00 +28°C° 0 mm 3 mps 752 mmHg 53%
    20:00 +27°C° 0 mm 2 mps 752 mmHg 55%
    21:00 +26°C° 0 mm 1 mps 752 mmHg 56%
    22:00 +26°C° 0 mm 1 mps 752 mmHg 57%
    23:00 +26°C° 0 mm 1 mps 752 mmHg 57%

    23 March, Saturday

    Time Temperature Precipitation Wind Pressure Humidity
    00:00 +25°C° 0 mm 1 mps 752 mmHg 57%
    01:00 +25°C° 0 mm 1 mps 751 mmHg 62%
    02:00 +24°C° 0 mm 2 mps 751 mmHg 66%
    03:00 +23°C° 0 mm 2 mps 751 mmHg 70%
    04:00 +23°C° 0 mm 2 mps 751 mmHg 73%
    05:00 +23°C° 0 mm 2 mps 751 mmHg 75%
    06:00 +21°C° 0 mm 2 mps 752 mmHg 77%
    07:00 +23°C° 0 mm 2 mps 752 mmHg 71%
    08:00 +25°C° 0 mm 3 mps 752 mmHg 66%
    09:00 +26°C° 0 mm 3 mps 753 mmHg 60%
    10:00 +27°C° 0 mm 3 mps 753 mmHg 55%
    11:00 +28°C° 0 mm 3 mps 753 mmHg 51%
    12:00 +29°C° 0 mm 3 mps 753 mmHg 46%
    13:00 +29°C° 0 mm 3 mps 752 mmHg 46%
    14:00 +29°C° 0 mm 3 mps 752 mmHg 46%
    15:00 +29°C° 0 mm 3 mps 751 mmHg 46%
    16:00 +28°C° 0 mm 3 mps 752 mmHg 49%
    17:00 +27°C° 0 mm 3 mps 752 mmHg 53%
    18:00 +25°C° 0 mm 4 mps 752 mmHg 57%
    19:00 +25°C° 0 mm 3 mps 753 mmHg 62%
    20:00 +24°C° 0 mm 2 mps 754 mmHg 66%
    21:00 +23°C° 0 mm 2 mps 754 mmHg 71%
    22:00 +23°C° 0 mm 1 mps 754 mmHg 74%
    23:00 +22°C° 0 mm 1 mps 754 mmHg 76%

    24 March, Sunday

    Time Temperature Precipitation Wind Pressure Humidity
    00:00 +22°C° 0 mm 1 mps 754 mmHg 79%
    01:00 +22°C° 0 mm 1 mps 753 mmHg 80%
    02:00 +20°C° 0 mm 2 mps 753 mmHg 82%
    03:00 +20°C° 0 mm 2 mps 753 mmHg 84%
    04:00 +21°C° 0 mm 1 mps 753 mmHg 84%
    05:00 +21°C° 0 mm 1 mps 753 mmHg 85%
    06:00 +18°C° 0 mm 0 mps 753 mmHg 86%
    07:00 +21°C° 0 mm 1 mps 753 mmHg 80%
    08:00 +22°C° 0 mm 1 mps 753 mmHg 74%
    09:00 +24°C° 0 mm 2 mps 753 mmHg 69%
    10:00 +25°C° 0 mm 3 mps 753 mmHg 65%
    11:00 +26°C° 0 mm 3 mps 752 mmHg 61%
    12:00 +27°C° 0 mm 4 mps 751 mmHg 57%
    13:00 +26°C° 0 mm 5 mps 751 mmHg 60%
    14:00 +26°C° 0 mm 5 mps 750 mmHg 62%
    15:00 +24°C° 0 mm 6 mps 750 mmHg 64%
    16:00 +23°C° 0.1 mm 7 mps 750 mmHg 64%
    17:00 +22°C° 0.1 mm 7 mps 751 mmHg 63%
    18:00 +21°C° 0.1 mm 8 mps 751 mmHg 63%
    19:00 +21°C° 0 mm 8 mps 752 mmHg 63%
    20:00 +19°C° 0 mm 9 mps 753 mmHg 63%
    21:00 +19°C° 0 mm 9 mps 753 mmHg 63%
    22:00 +18°C° 0.1 mm 9 mps 753 mmHg 62%
    23:00 +18°C° 0.1 mm 10 mps 754 mmHg 60%

    25 March, Monday

    Time Temperature Precipitation Wind Pressure Humidity
    00:00 +17°C° 0.1 mm 10 mps 754 mmHg 58%
    01:00 +16°C° 0 mm 9 mps 754 mmHg 59%
    02:00 +15°C° 0 mm 9 mps 755 mmHg 60%
    03:00 +15°C° 0 mm 8 mps 755 mmHg 60%
    04:00 +14°C° 0 mm 7 mps 756 mmHg 59%
    05:00 +14°C° 0 mm 7 mps 756 mmHg 57%
    06:00 +14°C° 0 mm 7 mps 757 mmHg 56%
    07:00 +15°C° 0 mm 6 mps 758 mmHg 55%
    08:00 +15°C° 0 mm 6 mps 758 mmHg 53%
    09:00 +15°C° 0 mm 5 mps 759 mmHg 52%
    10:00 +16°C° 0 mm 5 mps 759 mmHg 51%
    11:00 +17°C° 0 mm 5 mps 759 mmHg 49%
    12:00 +17°C° 0 mm 5 mps 759 mmHg 47%
    13:00 +17°C° 0 mm 5 mps 759 mmHg 47%
    14:00 +17°C° 0 mm 5 mps 759 mmHg 47%
    15:00 +17°C° 0 mm 5 mps 759 mmHg 48%
    16:00 +16°C° 0 mm 5 mps 759 mmHg 50%
    17:00 +15°C° 0 mm 4 mps 760 mmHg 52%
    18:00 +15°C° 0 mm 4 mps 760 mmHg 55%
    19:00 +14°C° 0 mm 4 mps 761 mmHg 57%
    20:00 +14°C° 0 mm 3 mps 761 mmHg 59%
    21:00 +14°C° 0 mm 3 mps 762 mmHg 61%
    22:00 +14°C° 0 mm 3 mps 762 mmHg 61%
    23:00 +14°C° 0 mm 3 mps 762 mmHg 62%
    Show more